Cloud_Cover
0 0 0 1 79 96 94 42 4 0 0 0 0 0 0 0 0 0 0 0 0 0 100 100 4 0 0 0 0 12 1 0 15 10 0 0 0 5 0 4 5 5 4 82
0 0 0 0 0 5 50 66 7 4 5 1 0 0 0 0 0 0 0 0 0 0 2 70 78 0 0 0 0 0 0 1 58 0 0 0 0 4 0 0 5 0 0 83
0 0 1 0 0 0 0 62 83 91 31 3 1 0 0 0 0 0 0 1 0 0 0 4 58 12 0 0 0 0 0 0 98 71 0 0 0 0 0 2 0 5 0 100
0 0 0 0 0 0 0 0 12 50 99 89 5 42 0 0 0 0 0 5 0 0 0 0 5 87 0 0 0 0 0 1 90 100 3 0 0 2 0 0 4 5 5 100
0 0 0 0 0 0 0 0 0 0 5 100 7 71 0 0 0 0 0 1 34 0 5 1 2 85 6 0 0 0 2 3 30 100 53 0 2 0 0 5 5 5 5 100
0 0 0 0 9 92 40 64 80 13 29 99 0 9 0 0 0 0 0 0 91 24 4 5 0 17 98 0 0 0 1 5 28 47 98 6 5 5 5 5 6 7 44 100
0 0 0 0 1 100 100 97 92 91 98 31 0 15 2 0 0 0 0 0 28 100 1 6 6 1 99 16 0 0 9 56 29 88 77 69 22 77 62 43 79 46 73 100
6 4 0 0 54 76 6 97 100 100 39 10 5 51 0 0 0 0 0 0 0 100 45 9 97 4 7 69 0 0 0 59 49 100 100 78 52 82 100 95 100 55 82 100
94 33 0 0 0 100 16 100 100 88 6 100 99 14 0 0 0 0 0 0 0 89 100 3 65 88 5 24 1 0 0 17 50 100 100 60 19 27 97 81 94 59 100 100
4 80 1 0 30 27 100 78 100 100 100 100 100 19 1 0 0 0 0 0 0 4 100 87 8 97 88 65 5 0 5 5 93 66 91 30 5 5 5 16 94 100 100 100
7 95 6 0 95 99 100 99 100 100 100 98 70 2 0 0 0 0 0 0 0 0 98 100 12 44 100 93 6 0 2 5 83 83 100 37 12 71 53 100 100 58 95 96
17 96 99 0 89 100 100 100 100 100 100 100 93 50 98 8 0 3 5 0 0 0 73 100 96 0 92 100 50 0 0 5 100 100 100 100 95 100 78 100 100 96 100 100
18 80 23 2 97 96 91 100 100 100 100 97 100 34 100 100 98 9 0 0 0 0 11 100 100 9 1 99 100 14 0 5 100 100 100 98 98 100 100 100 100 100 100 99
97 36 100 98 54 87 100 100 100 100 100 48 100 24 99 100 100 100 85 2 0 0 1 100 100 74 5 30 100 100 6 5 96 100 100 100 100 100 100 100 100 100 100 100
96 85 100 100 100 98 100 100 100 100 100 100 29 12 0 100 100 100 100 73 0 4 5 59 100 100 51 5 100 100 99 7 97 100 100 100 100 100 100 100 100 100 100 100
71 71 62 93 100 70 100 100 100 100 100 100 100 100 2 100 100 100 100 95 0 0 44 5 100 100 99 7 92 100 100 100 88 100 100 100 100 100 100 100 100 100 100 100
58 96 94 16 77 55 100 100 100 100 100 100 100 100 100 100 100 100 100 100 6 0 99 55 98 100 100 76 48 100 100 100 100 100 100 100 100 100 100 100 100 100 100 97
5 51 98 50 88 90 100 100 100 100 100 100 100 100 100 94 100 100 100 100 36 0 23 100 98 100 100 100 100 100 100 100 100 100 100 100 100 100 100 100 100 100 98 100
2 11 96 97 92 88 100 100 100 100 100 100 100 100 100 90 100 100 100 100 100 38 75 100 100 100 100 100 100 100 100 100 100 100 100 100 100 100 100 100 100 100 100 100
2 6 64 97 100 97 100 100 100 100 100 100 100 100 100 100 100 100 100 100 100 5 79 93 100 100 100 100 100 100 100 100 100 100 100 100 100 100 100 100 100 100 100 100
18 23 88 55 62 78 100 100 100 100 100 100 100 100 100 100 100 100 100 100 97 100 88 100 70 100 100 100 100 100 100 100 100 100 100 100 100 100 100 100 100 100 100 100
2 62 5 57 98 71 100 100 100 100 100 100 100 100 100 100 100 100 100 100 100 100 80 100 100 97 100 100 100 100 100 100 100 100 100 100 100 100 100 100 100 100 100 100
55 43 90 100 0 4 100 100 100 100 100 100 100 100 100 100 100 100 100 100 100 100 100 100 100 100 100 100 100 100 100 100 100 100 100 100 100 100 100 100 100 100 100 100
3 16 99 29 0 4 93 99 100 100 100 100 100 100 100 100 100 100 100 100 100 100 100 100 100 100 100 100 100 100 100 100 100 100 100 100 100 100 100 100 100 100 100 100
50 99 16 40 0 3 65 100 100 100 100 100 100 100 100 100 100 100 100 100 100 100 100 100 100 100 100 100 100 100 100 100 100 100 100 100 100 100 100 100 100 100 100 100
37 16 40 2 0 0 63 100 100 100 100 100 100 100 100 100 100 100 100 100 100 100 100 100 100 100 100 100 100 100 100 100 100 100 100 100 100 100 100 100 100 100 100 100